Location: Schommer Observatory
(40.5200°N, 74.4500°W)
Time: 21:19:28
(UTC-05:00)

OTV 5 (USA 277) - Pass Details

Date: 11 October 2017
Orbit: 404 x 417 km, 43.0° (Epoch: 07 September)

Event Time Altitude Azimuth Distance (km) Brightness Sun altitude
Rises 20:28:58 0° 262° (W) 2,351 ? -24.6°
Reaches altitude 10° 20:31:06 10° 266° (W) 1,489 ? -25.0°
Enters shadow 20:33:03 32° 276° (W) 746 ? -25.3°
